Location: Nitra
(48.3167°N, 18.0833°E)
Time: 05:18:50
(UTC+02:00)

X-37B - Visible Passes

Search period start: 19 September 2020 00:00
Search period end: 29 September 2020 00:00
Orbit: 386 x 387 km, 45.0° (Epoch: 18 September)

Date Brightness Start Highest point End Pass type
(mag) Time Alt. Az. Time Alt. Az. Time Alt. Az.
19 Sep 1.6 04:29:08 38° SE 04:29:08 38° SE 04:31:35 10° ESE visible
20 Sep 1.2 05:05:33 33° SW 05:06:22 41° S 05:09:24 10° ESE visible
21 Sep 2.9 04:09:45 20° ESE 04:09:45 20° ESE 04:10:57 10° ESE visible
21 Sep 1.9 05:42:02 14° WSW 05:44:09 25° SSW 05:46:51 10° SE visible
22 Sep 1.8 04:46:20 31° SSE 04:46:20 31° SSE 04:48:38 10° SE visible
23 Sep 2.3 05:23:01 18° SW 05:23:25 18° SSW 05:25:41 10° SSE visible
24 Sep 3.4 04:27:32 11° SE 04:27:32 11° SE 04:27:44 10° SE visible
